Location: Knowlton
(51.2333°N, 1.2667°E)
Time: 09:54:42
(UTC+00:00)

ATLAS 5 CENTAUR R/B - Pass Details

Date: 18 April 2021
Orbit: 516 x 1141 km, 63.3° (Epoch: 02 May)

Event Time Altitude Azimuth Distance (km) Brightness Sun altitude
Rises 22:48:04 0° 305° (NW) 2,953 5.8 -26.0°
Reaches altitude 10° 22:50:39 10° 321° (NW) 2,139 5.2 -26.1°
Maximum altitude 22:54:33 23° 14° (NNE) 1,577 4.2 -26.3°
Drops below altitude 10° 22:58:59 10° 65° (ENE) 2,465 4.7 -26.5°
Sets 23:02:13 0° 80° (E) 3,527 5.4 -26.6°
